Time,TemperatureF,DewpointF,PressureIn,WindDirection,WindDirectionDegrees,WindSpeedMPH,WindSpeedGustMPH,Humidity,HourlyPrecipIn,Conditions,Clouds,dailyrainin,SolarRadiationWatts/m^2,SoftwareType,DateUTC
2013-08-10 00:00:00,60.7,58.0,29.99,NW,306,0.0,2.0,89,0.00,,,0.00,0,weatherlink.com 1.10,2013-08-10 05:00:00,
2013-08-10 00:15:00,59.8,57.0,30.00,NW,306,2.0,3.0,90,0.00,,,0.00,0,weatherlink.com 1.10,2013-08-10 05:15:00,
2013-08-10 00:30:00,60.8,58.0,30.00,NW,306,3.0,4.0,90,0.00,,,0.00,0,weatherlink.com 1.10,2013-08-10 05:30:00,
2013-08-10 00:45:00,60.5,58.0,30.00,NW,306,3.0,4.0,90,0.00,,,0.00,0,weatherlink.com 1.10,2013-08-10 05:45:00,
2013-08-10 01:00:00,59.0,56.0,30.00,NW,306,3.0,4.0,91,0.00,,,0.00,0,weatherlink.com 1.10,2013-08-10 06:00:00,
2013-08-10 01:16:00,58.6,57.0,30.01,NW,306,2.0,4.0,93,0.00,,,0.00,0,weatherlink.com 1.10,2013-08-10 06:16:00,
2013-08-10 01:31:00,58.0,56.0,30.00,NW,306,3.0,4.0,92,0.00,,,0.00,0,weatherlink.com 1.10,2013-08-10 06:31:00,
2013-08-10 01:46:00,58.0,56.0,30.01,NW,306,0.0,1.0,92,0.00,,,0.00,0,weatherlink.com 1.10,2013-08-10 06:46:00,
2013-08-10 02:01:00,57.3,55.0,30.01,NW,306,0.0,2.0,93,0.00,,,0.00,0,weatherlink.com 1.10,2013-08-10 07:01:00,
2013-08-10 02:16:00,57.3,56.0,30.01,NW,306,2.0,3.0,94,0.00,,,0.00,0,weatherlink.com 1.10,2013-08-10 07:16:00,
2013-08-10 02:31:00,57.0,55.0,30.02,NW,306,3.0,4.0,93,0.00,,,0.00,0,weatherlink.com 1.10,2013-08-10 07:31:00,
2013-08-10 02:46:00,56.0,54.0,30.01,NW,306,2.0,4.0,93,0.00,,,0.00,0,weatherlink.com 1.10,2013-08-10 07:46:00,
2013-08-10 03:01:00,55.6,54.0,30.02,NW,306,3.0,5.0,93,0.00,,,0.00,0,weatherlink.com 1.10,2013-08-10 08:01:00,
2013-08-10 03:16:00,55.8,54.0,30.02,NW,306,3.0,4.0,94,0.00,,,0.00,0,weatherlink.com 1.10,2013-08-10 08:16:00,
2013-08-10 03:31:00,55.3,54.0,30.02,NW,306,1.0,4.0,94,0.00,,,0.00,0,weatherlink.com 1.10,2013-08-10 08:31:00,
2013-08-10 03:46:00,55.2,54.0,30.02,NW,306,4.0,5.0,94,0.00,,,0.00,0,weatherlink.com 1.10,2013-08-10 08:46:00,
2013-08-10 04:01:00,55.0,53.0,30.03,NW,306,4.0,5.0,94,0.00,,,0.00,0,weatherlink.com 1.10,2013-08-10 09:01:00,
2013-08-10 04:16:00,55.1,54.0,30.03,NW,306,3.0,5.0,94,0.00,,,0.00,0,weatherlink.com 1.10,2013-08-10 09:16:00,
2013-08-10 04:31:00,54.7,53.0,30.03,NW,306,4.0,5.0,94,0.00,,,0.00,0,weatherlink.com 1.10,2013-08-10 09:31:00,
2013-08-10 04:46:00,54.4,53.0,30.04,NW,306,4.0,5.0,95,0.00,,,0.00,0,weatherlink.com 1.10,2013-08-10 09:46:00,
2013-08-10 05:01:00,54.9,53.0,30.04,NW,306,5.0,5.0,94,0.00,,,0.00,0,weatherlink.com 1.10,2013-08-10 10:01:00,
2013-08-10 05:16:00,54.1,53.0,30.04,NW,306,5.0,5.0,94,0.00,,,0.00,0,weatherlink.com 1.10,2013-08-10 10:16:00,
2013-08-10 05:31:00,53.3,52.0,30.04,NW,306,4.0,5.0,94,0.00,,,0.00,0,weatherlink.com 1.10,2013-08-10 10:31:00,
2013-08-10 05:46:00,53.2,52.0,30.05,NW,306,5.0,5.0,95,0.00,,,0.00,0,weatherlink.com 1.10,2013-08-10 10:46:00,
2013-08-10 06:01:00,52.6,51.0,30.05,NW,306,3.0,6.0,95,0.00,,,0.00,5,weatherlink.com 1.10,2013-08-10 11:01:00,
2013-08-10 06:16:00,53.2,52.0,30.05,NW,306,3.0,4.0,95,0.00,,,0.00,16,weatherlink.com 1.10,2013-08-10 11:16:00,
2013-08-10 06:31:00,53.6,52.0,30.05,NW,306,4.0,4.0,95,0.00,,,0.00,40,weatherlink.com 1.10,2013-08-10 11:31:00,
2013-08-10 06:46:00,53.6,52.0,30.05,NW,306,5.0,5.0,94,0.00,,,0.00,74,weatherlink.com 1.10,2013-08-10 11:46:00,
2013-08-10 07:01:00,54.2,53.0,30.05,NW,306,3.0,6.0,95,0.00,,,0.00,109,weatherlink.com 1.10,2013-08-10 12:01:00,
2013-08-10 07:16:00,55.0,54.0,30.05,NW,306,3.0,5.0,95,0.00,,,0.00,146,weatherlink.com 1.10,2013-08-10 12:16:00,
2013-08-10 07:32:00,56.4,55.0,30.05,NW,306,5.0,5.0,95,0.00,,,0.00,183,weatherlink.com 1.10,2013-08-10 12:32:00,
2013-08-10 07:47:00,57.7,56.0,30.05,NW,306,2.0,4.0,94,0.00,,,0.00,227,weatherlink.com 1.10,2013-08-10 12:47:00,
2013-08-10 08:02:00,59.0,57.0,30.06,NW,306,3.0,5.0,93,0.00,,,0.00,272,weatherlink.com 1.10,2013-08-10 13:02:00,
2013-08-10 08:17:00,60.7,58.0,30.06,NW,306,4.0,6.0,91,0.00,,,0.00,325,weatherlink.com 1.10,2013-08-10 13:17:00,
2013-08-10 08:32:00,62.2,58.0,30.06,NW,306,1.0,5.0,87,0.00,,,0.00,374,weatherlink.com 1.10,2013-08-10 13:32:00,
2013-08-10 08:47:00,63.7,59.0,30.06,NW,306,2.0,3.0,85,0.00,,,0.00,422,weatherlink.com 1.10,2013-08-10 13:47:00,
2013-08-10 09:02:00,65.5,61.0,30.06,NW,306,0.0,3.0,84,0.00,,,0.00,466,weatherlink.com 1.10,2013-08-10 14:02:00,
2013-08-10 09:17:00,67.2,61.0,30.06,NW,306,3.0,5.0,79,0.00,,,0.00,513,weatherlink.com 1.10,2013-08-10 14:17:00,
2013-08-10 09:32:00,68.4,59.0,30.07,NW,306,3.0,6.0,73,0.00,,,0.00,550,weatherlink.com 1.10,2013-08-10 14:32:00,
2013-08-10 09:47:00,69.6,60.0,30.07,NW,307,4.0,6.0,72,0.00,,,0.00,592,weatherlink.com 1.10,2013-08-10 14:47:00,
2013-08-10 10:02:00,70.5,59.0,30.07,NW,309,3.0,7.0,66,0.00,,,0.00,633,weatherlink.com 1.10,2013-08-10 15:02:00,
2013-08-10 10:17:00,71.3,58.0,30.07,NW,311,4.0,7.0,63,0.00,,,0.00,668,weatherlink.com 1.10,2013-08-10 15:17:00,
2013-08-10 10:32:00,71.7,58.0,30.08,NW,311,3.0,7.0,62,0.00,,,0.00,701,weatherlink.com 1.10,2013-08-10 15:32:00,
2013-08-10 10:47:00,71.8,57.0,30.08,NW,311,4.0,10.0,59,0.00,,,0.00,735,weatherlink.com 1.10,2013-08-10 15:47:00,
2013-08-10 11:03:00,72.5,56.0,30.08,NNW,331,1.0,9.0,57,0.00,,,0.00,772,weatherlink.com 1.10,2013-08-10 16:03:00,
2013-08-10 11:18:00,72.9,58.0,30.08,NW,320,3.0,14.0,60,0.00,,,0.00,865,weatherlink.com 1.10,2013-08-10 16:18:00,
2013-08-10 11:33:00,73.5,58.0,30.08,NW,314,7.0,10.0,58,0.00,,,0.00,898,weatherlink.com 1.10,2013-08-10 16:33:00,
2013-08-10 11:48:00,73.9,57.0,30.08,NW,313,4.0,12.0,56,0.00,,,0.00,963,weatherlink.com 1.10,2013-08-10 16:48:00,
2013-08-10 12:03:00,73.7,58.0,30.08,NW,318,7.0,9.0,58,0.00,,,0.00,1121,weatherlink.com 1.10,2013-08-10 17:03:00,
2013-08-10 12:18:00,72.1,56.0,30.08,WNW,282,5.0,14.0,58,0.00,,,0.00,339,weatherlink.com 1.10,2013-08-10 17:18:00,
2013-08-10 12:33:00,72.3,57.0,30.08,NW,319,6.0,11.0,59,0.00,,,0.00,316,weatherlink.com 1.10,2013-08-10 17:33:00,
2013-08-10 12:48:00,71.9,57.0,30.07,WNW,296,7.0,10.0,59,0.00,,,0.00,1039,weatherlink.com 1.10,2013-08-10 17:48:00,
2013-08-10 13:03:00,73.3,57.0,30.08,NW,318,8.0,15.0,57,0.00,,,0.00,318,weatherlink.com 1.10,2013-08-10 18:03:00,
2013-08-10 13:18:00,73.2,57.0,30.07,North,360,4.0,7.0,57,0.00,,,0.00,336,weatherlink.com 1.10,2013-08-10 18:18:00,
2013-08-10 13:33:00,71.7,56.0,30.07,NW,310,7.0,11.0,59,0.00,,,0.00,290,weatherlink.com 1.10,2013-08-10 18:33:00,
2013-08-10 13:48:00,73.0,58.0,30.07,WNW,282,10.0,11.0,60,0.00,,,0.00,332,weatherlink.com 1.10,2013-08-10 18:48:00,
2013-08-10 14:03:00,73.9,57.0,30.07,WNW,295,3.0,11.0,56,0.00,,,0.00,411,weatherlink.com 1.10,2013-08-10 19:03:00,
2013-08-10 14:18:00,72.5,59.0,30.07,NW,317,5.0,9.0,63,0.00,,,0.00,1030,weatherlink.com 1.10,2013-08-10 19:18:00,
2013-08-10 14:33:00,74.0,59.0,30.07,WNW,294,6.0,11.0,59,0.00,,,0.00,898,weatherlink.com 1.10,2013-08-10 19:33:00,
2013-08-10 14:48:00,74.4,58.0,30.06,NW,317,5.0,13.0,57,0.00,,,0.00,868,weatherlink.com 1.10,2013-08-10 19:48:00,
2013-08-10 15:03:00,74.0,58.0,30.06,NW,312,9.0,11.0,57,0.00,,,0.00,264,weatherlink.com 1.10,2013-08-10 20:03:00,
2013-08-10 15:18:00,73.8,59.0,30.05,NW,312,9.0,13.0,60,0.00,,,0.00,860,weatherlink.com 1.10,2013-08-10 20:18:00,
2013-08-10 15:33:00,74.5,59.0,30.05,NW,304,8.0,11.0,58,0.00,,,0.00,791,weatherlink.com 1.10,2013-08-10 20:33:00,
2013-08-10 15:48:00,74.6,59.0,30.04,NW,325,11.0,14.0,58,0.00,,,0.00,731,weatherlink.com 1.10,2013-08-10 20:48:00,
2013-08-10 16:03:00,74.6,58.0,30.04,WNW,290,8.0,11.0,56,0.00,,,0.00,719,weatherlink.com 1.10,2013-08-10 21:03:00,
2013-08-10 16:18:00,73.2,59.0,30.04,North,350,3.0,12.0,61,0.00,,,0.00,721,weatherlink.com 1.10,2013-08-10 21:18:00,
2013-08-10 16:33:00,74.2,59.0,30.04,WNW,302,8.0,12.0,59,0.00,,,0.00,626,weatherlink.com 1.10,2013-08-10 21:33:00,
2013-08-10 16:48:00,74.6,59.0,30.04,WNW,302,6.0,11.0,58,0.00,,,0.00,587,weatherlink.com 1.10,2013-08-10 21:48:00,
2013-08-10 17:03:00,75.3,57.0,30.04,NNW,346,2.0,9.0,54,0.00,,,0.00,142,weatherlink.com 1.10,2013-08-10 22:03:00,
2013-08-10 17:18:00,73.7,57.0,30.03,NW,320,7.0,11.0,57,0.00,,,0.00,482,weatherlink.com 1.10,2013-08-10 22:18:00,
2013-08-10 17:33:00,74.4,59.0,30.03,NW,326,10.0,14.0,58,0.00,,,0.00,425,weatherlink.com 1.10,2013-08-10 22:33:00,
2013-08-10 17:48:00,73.9,57.0,30.03,NW,311,9.0,14.0,55,0.00,,,0.00,374,weatherlink.com 1.10,2013-08-10 22:48:00,
2013-08-10 18:03:00,73.7,56.0,30.03,WNW,302,7.0,12.0,54,0.00,,,0.00,323,weatherlink.com 1.10,2013-08-10 23:03:00,
2013-08-10 18:18:00,73.4,58.0,30.03,NW,313,8.0,11.0,58,0.00,,,0.00,278,weatherlink.com 1.10,2013-08-10 23:18:00,
2013-08-10 18:33:00,72.9,58.0,30.03,NW,306,8.0,10.0,60,0.00,,,0.00,237,weatherlink.com 1.10,2013-08-10 23:33:00,
2013-08-10 18:48:00,72.3,57.0,30.03,NNW,329,3.0,11.0,59,0.00,,,0.00,188,weatherlink.com 1.10,2013-08-10 23:48:00,
2013-08-10 19:03:00,71.6,59.0,30.03,NNW,330,4.0,6.0,64,0.00,,,0.00,148,weatherlink.com 1.10,2013-08-11 00:03:00,
2013-08-10 19:18:00,70.4,59.0,30.03,NNW,330,4.0,6.0,67,0.00,,,0.00,84,weatherlink.com 1.10,2013-08-11 00:18:00,
2013-08-10 19:33:00,69.0,58.0,30.02,NNW,331,4.0,6.0,68,0.00,,,0.00,56,weatherlink.com 1.10,2013-08-11 00:33:00,
2013-08-10 19:48:00,66.5,58.0,30.03,NNW,331,4.0,5.0,75,0.00,,,0.00,25,weatherlink.com 1.10,2013-08-11 00:48:00,
2013-08-10 20:03:00,65.0,57.0,30.03,NNW,331,3.0,4.0,76,0.00,,,0.00,7,weatherlink.com 1.10,2013-08-11 01:03:00,
2013-08-10 20:18:00,64.2,57.0,30.03,NNW,331,3.0,3.0,77,0.00,,,0.00,0,weatherlink.com 1.10,2013-08-11 01:18:00,
2013-08-10 20:33:00,62.9,57.0,30.03,NNW,331,1.0,4.0,80,0.00,,,0.00,0,weatherlink.com 1.10,2013-08-11 01:33:00,
2013-08-10 20:48:00,62.0,57.0,30.04,NNW,331,0.0,0.0,83,0.00,,,0.00,0,weatherlink.com 1.10,2013-08-11 01:48:00,
2013-08-10 21:03:00,61.5,56.0,30.04,NNW,331,0.0,0.0,83,0.00,,,0.00,0,weatherlink.com 1.10,2013-08-11 02:03:00,
2013-08-10 21:18:00,60.9,56.0,30.05,NNW,331,0.0,0.0,84,0.00,,,0.00,0,weatherlink.com 1.10,2013-08-11 02:18:00,
2013-08-10 21:33:00,60.3,56.0,30.05,NNW,331,0.0,0.0,85,0.00,,,0.00,0,weatherlink.com 1.10,2013-08-11 02:33:00,
2013-08-10 21:48:00,59.7,56.0,30.05,NNW,331,0.0,0.0,87,0.00,,,0.00,0,weatherlink.com 1.10,2013-08-11 02:48:00,
2013-08-10 22:03:00,59.5,56.0,30.04,NNW,331,0.0,0.0,87,0.00,,,0.00,0,weatherlink.com 1.10,2013-08-11 03:03:00,
2013-08-10 22:18:00,59.0,55.0,30.04,NNW,331,0.0,0.0,87,0.00,,,0.00,0,weatherlink.com 1.10,2013-08-11 03:18:00,
2013-08-10 22:33:00,58.2,54.0,30.04,NNW,331,0.0,2.0,86,0.00,,,0.00,0,weatherlink.com 1.10,2013-08-11 03:33:00,
2013-08-10 22:48:00,56.6,54.0,30.04,NNW,331,0.0,1.0,89,0.00,,,0.00,0,weatherlink.com 1.10,2013-08-11 03:48:00,
2013-08-10 23:03:00,56.2,54.0,30.04,NNW,331,0.0,1.0,91,0.00,,,0.00,0,weatherlink.com 1.10,2013-08-11 04:03:00,
2013-08-10 23:18:00,55.9,54.0,30.04,NNW,331,0.0,0.0,92,0.00,,,0.00,0,weatherlink.com 1.10,2013-08-11 04:18:00,
2013-08-10 23:33:00,55.7,54.0,30.04,NNW,331,0.0,0.0,92,0.00,,,0.00,0,weatherlink.com 1.10,2013-08-11 04:33:00,
2013-08-10 23:48:00,55.5,54.0,30.04,NNW,331,0.0,0.0,93,0.00,,,0.00,0,weatherlink.com 1.10,2013-08-11 04:48:00,